[[{"header":{"parameterUnit":"m.s-1","parameterCategory":2,"la1":30.2991,"la2":30.254,"lo1":-89.0895,"lo2":-89.0444,"dy":0.0017,"dx":0.0017,"nx":28,"ny":28,"refTime":"2025-03-12T03:00:00:Z","depth":"0","parameterNumber":2,"parameterNumberName":"U-component_of_CURRENTS"},"data":[0,0,0,0,0,0,0,0,0,0,0,0,0,0,0,0,0,0,0,0,0,0,0,0,0,0,0,0,0,0,0,0,0,0,0,0,0,0,0,0,0,0,0,0,0,0,0,0,0,0,0,0,0,0,0,0,0,0,0.3564,0.3563,0,0.3432,0.343,0.3428,0.3258,0.3256,0.3254,0.3252,0.323,0.3231,0.3232,0,0,0,0,0,0,0,0,0,0,0,0,0,0.3725,0.3721,0.3564,0.3563,0.3562,0.3433,0.343,0.3427,0.3258,0.3256,0.3254,0.3251,0.323,0.3231,0.3233,0,0,0,0,0,0,0,0,0,0,0,0,0,0.3622,0.372,0.3564,0.3469,0.3459,0.3433,0.343,0.3427,0.3259,0.3256,0.3253,0.325,0.3229,0.3231,0.3233,0.3304,0,0,0.3238,0.3239,0,0,0,0,0,0,0,0,0.3628,0.3615,0.3484,0.3475,0.3465,0.3366,0.3479,0.3394,0.326,0.3326,0.3252,0.3249,0.3294,0.329,0.3258,0.3303,0.3302,0.3239,0.324,0.3241,0.3241,0,0,0,0,0,0,0,0.3635,0.362,0.3503,0.3483,0.3472,0.3452,0.3432,0.3461,0.3324,0.332,0.331,0.3309,0.3287,0.3256,0.3257,0.3301,0.3239,0.324,0.3241,0.3242,0.3383,0.3386,0,0,0,0,0,0,0.3668,0.3627,0.3508,0.35,0.355,0.3452,0.343,0.3394,0.332,0.3308,0.3312,0.3302,0.3255,0.3255,0.3256,0.3345,0.3241,0.3242,0.3243,0.3381,0.3384,0.3387,0,0,0,0,0,0,0.3672,0.3658,0.3513,0.357,0.3551,0.3453,0.3413,0.3393,0.3366,0.3315,0.3302,0.3307,0.3252,0.3253,0.3262,0.3343,0.3243,0.3245,0.3377,0.3381,0.3385,0.3521,0,0,0,0,0,0,0.3676,0.3659,0.3645,0.3571,0.3549,0.3525,0.3417,0.3393,0.3374,0.3359,0.3308,0.3301,0.325,0.326,0.3264,0.3344,0.3246,0.3374,0.3379,0.3384,0.3513,0.3529,0.3542,0,0,0,0,0,0.3682,0.3687,0.3644,0.3631,0.3532,0.3529,0.3516,0.3431,0.3378,0.339,0.3323,0.3303,0.3295,0.3263,0.3267,0.335,0.3372,0.3378,0.3383,0.3506,0.3526,0.3542,0,0,0,0,0,0,0.376,0.3669,0.362,0.3597,0.3578,0.3504,0.3506,0.3459,0.3413,0.3398,0.3327,0.3318,0.3352,0.3339,0.3305,0.3404,0.3337,0.3344,0.3429,0.3447,0.3461,0.3505,0.3248,0,0,0,0,0,0.3773,0.3749,0.3679,0.3677,0.366,0.359,0.3577,0.3534,0.3489,0.3462,0.3424,0.3395,0.3385,0.3401,0.3385,0.3458,0.3481,0.3517,0.3532,0.3544,0.3583,0.3671,0.3698,0.3406,0.3406,0.3406,0,0,0.3814,0.3762,0.3751,0.3695,0.3658,0.3666,0.3572,0.3579,0.3597,0.348,0.3491,0.3444,0.3408,0.345,0.3472,0.3452,0.364,0.3552,0.3563,0.3595,0.368,0.3709,0.3735,0.341,0.3409,0.3408,0,0,0.3894,0.3827,0.3828,0.3818,0.3787,0.3751,0.3766,0.371,0.3686,0.3705,0.361,0.3612,0.3611,0.3594,0.3586,0.3694,0.3698,0.3698,0.3834,0.3919,0.3944,0.3967,0.4037,0.4064,0.3726,0.3727,0.3727,0,0.3937,0.3914,0.3846,0.3856,0.386,0.3799,0.3829,0.3818,0.3781,0.3793,0.3735,0.3728,0.3688,0.3747,0.3756,0.3734,0.3772,0.3765,0.3941,0.3964,0.3985,0.4051,0.408,0.3734,0.3733,0.3732,0.3732,0,0.401,0.4001,0.4018,0.3989,0.4001,0.403,0.4005,0.4029,0.3999,0.3979,0.4023,0.3958,0.3962,0.3953,0.388,0.4013,0.3987,0.3933,0.39,0.4023,0.4083,0.4111,0.3744,0.3742,0.3739,0.3738,0,0,0.4041,0.4057,0.4056,0.4061,0.4068,0.4076,0.4154,0.4182,0.4213,0.4221,0.4281,0.426,0.4225,0.4216,0.415,0.4216,0.4368,0.415,0.415,0.4227,0.4565,0.4475,0.4496,0.4348,0.4353,0.4358,0.4549,0,0.4098,0.415,0.4149,0.4212,0.4222,0.423,0.429,0.4329,0.4339,0.4389,0.4396,0.4405,0.4329,0.4317,0.4392,0.4341,0.4449,0.4322,0.4429,0.4433,0.4344,0.4528,0.4278,0.4422,0.4576,0.4581,0.4584,0,0.4123,0.4154,0.4228,0.4279,0.4283,0.4327,0.4398,0.4447,0.4531,0.4544,0.4617,0.4595,0.4684,0.4589,0.4707,0.4629,0.4642,0.4623,0.4629,0.4524,0.4395,0.4323,0.4466,0.4353,0.4626,0.4623,0.462,0,0.4119,0.4188,0.4248,0.4269,0.4334,0.4381,0.4417,0.4491,0.4524,0.4644,0.4688,0.4793,0.4813,0.4895,0.4869,0.4806,0.4993,0.4895,0.4857,0.4848,0.4649,0.4614,0.4702,0.5054,0.5053,0.5053,0.5052,0,0.4134,0.4165,0.4245,0.427,0.432,0.4379,0.4437,0.4494,0.4594,0.4636,0.4753,0.4803,0.4888,0.4981,0.4984,0.502,0.5111,0.4943,0.492,0.4686,0.4654,0.455,0.4506,0.506,0.5058,0.5057,0.5056,0,0.4077,0.4151,0.419,0.4282,0.4306,0.4326,0.4402,0.4437,0.4561,0.4638,0.4688,0.4838,0.4947,0.5049,0.5147,0.5125,0.5041,0.5176,0.4891,0.4831,0.4638,0.4609,0.4572,0.4443,0.5177,0.5176,0.5175,0,0.4033,0.4067,0.4156,0.4161,0.4188,0.4236,0.426,0.4386,0.4425,0.4619,0.4649,0.4824,0.4893,0.5067,0.5063,0.5151,0.5019,0.4974,0.481,0.4663,0.4616,0.4458,0.434,0.4603,0.4598,0.4593,0.459,0,0.3937,0.3986,0.4024,0.4043,0.4064,0.4086,0.4141,0.4183,0.4334,0.4406,0.4489,0.4582,0.4772,0.4729,0.4892,0.4898,0.4723,0.4887,0.4815,0.4277,0.4032,0.388,0.4441,0.4552,0.4556,0.4559,0.4561,0.4562,0.3835,0.3828,0.3888,0.3878,0.3899,0.3901,0.3861,0.3941,0.3979,0.4022,0.4213,0.4233,0.4375,0.4534,0.455,0.4439,0.4464,0.429,0.4304,0.4186,0.395,0.4439,0.4461,0.4464,0.4466,0.4469,0.4471,0,0.3687,0.3709,0.3705,0.3694,0.3633,0.371,0.3732,0.3652,0.3599,0.3712,0.3719,0.3777,0.3824,0.3968,0.4003,0.388,0.37,0.3796,0.3512,0.3452,0.3958,0.3817,0.36,0.36,0.3601,0.3601,0.3601,0.3601,0.3615,0.3577,0.3575,0.3423,0.3398,0.3256,0.3221,0.3139,0.3154,0.3072,0.3066,0.3165,0.3521,0.3676,0.3605,0.3512,0.3267,0.3106,0.3178,0.3525,0.357,0.3613,0.3471,0.3185,0.3185,0.2457,0.2451,0.2448]},{"header":{"parameterUnit":"m.s-1","parameterCategory":2,"la1":30.2991,"la2":30.254,"lo1":-89.0895,"lo2":-89.0444,"dy":0.0017,"dx":0.0017,"nx":28,"ny":28,"refTime":"2025-03-12T03:00:00:Z","depth":"0","parameterNumber":3,"parameterNumberName":"V-component_of_CURRENTS"},"data":[0,0,0,0,0,0,0,0,0,0,0,0,0,0,0,0,0,0,0,0,0,0,0,0,0,0,0,0,0,0,0,0,0,0,0,0,0,0,0,0,0,0,0,0,0,0,0,0,0,0,0,0,0,0,0,0,0,0,0.0059,0.0059,0,0.0016,0.0015,0.0015,-0.0015,-0.0015,-0.0015,-0.0015,-0.0126,-0.0129,-0.0132,0,0,0,0,0,0,0,0,0,0,0,0,0,-0.0062,-0.0059,0.0059,0.0059,0.0059,0.0016,0.0015,0.0015,-0.0015,-0.0015,-0.0015,-0.0015,-0.0125,-0.0129,-0.0132,0,0,0,0,0,0,0,0,0,0,0,0,0,-0.005,-0.0058,0.0059,0.0041,0.0039,0.0017,0.0015,0.0014,-0.0015,-0.0015,-0.0015,-0.0015,-0.0124,-0.0128,-0.0133,-0.0163,0,0,-0.0147,-0.0149,0,0,0,0,0,0,0,0,-0.0051,-0.0046,0.0044,0.0042,0.004,0.0009,-0.0068,-0.0047,-0.0015,0.0002,-0.0015,-0.0015,-0.0086,-0.0093,-0.0105,-0.0168,-0.0173,-0.0147,-0.015,-0.0152,-0.0153,0,0,0,0,0,0,0,-0.0051,-0.0046,0.0039,0.0044,0.0041,-0.0026,-0.0023,-0.0065,-0.0045,0.0001,-0.0001,-0.0001,-0.0087,-0.01,-0.0108,-0.0174,-0.0147,-0.0151,-0.0154,-0.0156,-0.0236,-0.0235,0,0,0,0,0,0,-0.003,-0.0045,0.004,0.0038,-0.0003,-0.0023,-0.002,0.0016,-0.0043,-0.0051,-0.0001,-0.0002,-0.0093,-0.0103,-0.0112,-0.0114,-0.0152,-0.0156,-0.0159,-0.0237,-0.0236,-0.0235,0,0,0,0,0,0,-0.0032,-0.002,0.0042,-0.0005,-0.0001,-0.0019,0.002,0.0015,0.0008,-0.0043,-0.0053,-0.0002,-0.0093,-0.0106,-0.0129,-0.012,-0.0158,-0.0162,-0.0237,-0.0236,-0.0235,-0.0143,0,0,0,0,0,0,-0.0034,-0.002,0.0006,-0.0002,0.0003,0.0043,0.002,0.0015,0.0009,0.0007,-0.0048,-0.0058,-0.0094,-0.0122,-0.0134,-0.0127,-0.0166,-0.0238,-0.0237,-0.0236,-0.0147,-0.0139,-0.0133,0,0,0,0,0,-0.0038,0.0003,0.0008,0.0018,0.0043,0.0044,0.004,0.0022,0.0009,0.0014,-0.0017,-0.0056,-0.0124,-0.0125,-0.0139,-0.0134,-0.0238,-0.0237,-0.0236,-0.015,-0.0141,-0.0133,0,0,0,0,0,0,-0.0055,0.0004,0.0009,0.0062,0.0059,0.0041,0.0045,0.0028,0.0006,0.0005,-0.0049,-0.0061,-0.0078,-0.0119,-0.0119,-0.0153,-0.0188,-0.019,-0.0118,-0.011,-0.0103,-0.0067,-0.017,0,0,0,0,0,-0.0039,0.0015,0.0035,0.0067,0.0081,0.0062,0.0057,0.0049,0.0031,0.0021,-0.0018,-0.0057,-0.0086,-0.0106,-0.014,-0.0162,-0.0177,-0.0168,-0.0161,-0.0155,-0.0134,-0.0127,-0.0117,-0.0231,-0.0231,-0.0231,0,0,-0.0047,-0.0004,0.0019,0.0068,0.0067,0.009,0.006,0.0068,0.0077,0.0011,0.0006,-0.0034,-0.0085,-0.01,-0.0113,-0.0132,-0.0135,-0.0153,-0.0147,-0.013,-0.0125,-0.0113,-0.0103,-0.023,-0.023,-0.023,0,0,-0.0036,0.0017,0.0063,0.0083,0.0107,0.0106,0.0114,0.0108,0.0103,0.0091,0.0053,0.0033,-0.0031,-0.0048,-0.007,-0.0046,-0.0094,-0.0074,-0.0012,-0.0006,0.0004,0.0013,-0.0006,0.0001,-0.0073,-0.0073,-0.0073,0,-0.0052,0.0022,0.0063,0.011,0.0126,0.0121,0.0149,0.0151,0.0129,0.0134,0.0103,0.0055,0.0002,0.0008,0.0009,-0.0027,-0.0042,-0.0039,0.0006,0.0015,0.0022,0.0001,0.0007,-0.0069,-0.0069,-0.007,-0.007,0,-0.0003,0.0049,0.0075,0.0149,0.0171,0.0192,0.0216,0.0228,0.0214,0.0207,0.0209,0.0156,0.0131,0.0102,0.0055,0.0079,0.0044,0.002,-0.0008,0.004,0.0013,0.0018,-0.0062,-0.0064,-0.0065,-0.0066,0,0,-0.0012,0.0088,0.0098,0.0133,0.0196,0.0216,0.026,0.0292,0.0328,0.0304,0.0343,0.0284,0.0263,0.0239,0.0187,0.0181,0.0198,0.0121,0.0119,0.0115,0.0196,0.0139,0.0138,0.0181,0.0183,0.0184,0.0151,0,0.0005,0.0081,0.0136,0.0195,0.0238,0.0275,0.0319,0.0352,0.0368,0.0409,0.0388,0.0396,0.0315,0.0307,0.0294,0.0231,0.0216,0.0208,0.0139,0.0137,0.0092,0.0144,0.0128,0.0096,0.0155,0.0156,0.0156,0,0.0054,0.0097,0.0152,0.0237,0.0262,0.0296,0.038,0.0419,0.049,0.0506,0.0532,0.0521,0.0522,0.0447,0.0389,0.0386,0.0299,0.0243,0.024,0.0164,0.009,0.0058,0.0101,-0.0092,0.0163,0.0163,0.0162,0,0.0043,0.0123,0.0159,0.0188,0.0277,0.0312,0.0358,0.0438,0.051,0.0579,0.0642,0.0634,0.0644,0.0569,0.0449,0.042,0.0384,0.0329,0.02,0.0193,0.0156,0.0144,0.002,0.0292,0.0292,0.0293,0.0293,0,0.0072,0.0115,0.0153,0.0184,0.0256,0.0309,0.0407,0.0464,0.0573,0.07,0.069,0.0782,0.0675,0.0647,0.0514,0.0382,0.0434,0.023,0.0195,0.0183,0.0174,-0.0017,-0.0124,0.0291,0.0292,0.0292,0.0292,0,0.01,0.0115,0.0176,0.0234,0.0264,0.0321,0.0465,0.0558,0.0632,0.0807,0.0845,0.0896,0.0864,0.0745,0.0619,0.0464,0.0225,0.027,0.025,0.0213,-0.0103,-0.0204,-0.0364,-0.044,0.013,0.0129,0.0128,0,0.0139,0.0158,0.0214,0.0277,0.0316,0.0404,0.0502,0.0586,0.0717,0.0896,0.1008,0.1016,0.1088,0.0871,0.0601,0.0377,0.0194,0.0165,0.0104,-0.0107,-0.0244,-0.0325,-0.0382,0.0082,0.008,0.0079,0.0078,0,0.0213,0.021,0.0257,0.0377,0.0467,0.0583,0.0723,0.0832,0.098,0.1125,0.1322,0.1382,0.1174,0.0949,0.0588,0.0408,0.0017,0.013,-0.0065,-0.0267,-0.0382,-0.0476,0.0064,0.0067,0.0069,0.0069,0.007,0.007,0.0277,0.0324,0.0389,0.0519,0.0629,0.08,0.0929,0.1092,0.1302,0.1549,0.1549,0.1656,0.1248,0.0772,0.049,-0.0088,-0.0072,-0.0272,-0.0369,-0.0426,-0.052,-0.0019,-0.0073,-0.0073,-0.0073,-0.0072,-0.0072,0,0.0376,0.044,0.0559,0.0712,0.087,0.09,0.1128,0.1276,0.1542,0.1699,0.1845,0.1692,0.1193,0.0673,-0.0089,-0.05,-0.0641,-0.0732,-0.0846,-0.0873,-0.0403,-0.0428,-0.0589,-0.0589,-0.0588,-0.0588,-0.0588,-0.0588,0.044,0.0562,0.0626,0.091,0.1034,0.1254,0.1392,0.1592,0.1745,0.1943,0.1983,0.198,0.1577,0.018,-0.0735,-0.0942,-0.1222,-0.1321,-0.1432,-0.1127,-0.1092,-0.1058,-0.1106,-0.1406,-0.1407,-0.1851,-0.1855,-0.1859]}],[{"header":{"parameterUnit":"m.s-1","parameterCategory":2,"la1":30.2991,"la2":30.254,"lo1":-89.0895,"lo2":-89.0444,"dy":0.0017,"dx":0.0017,"nx":28,"ny":28,"refTime":"2025-03-12T03:00:00:Z","depth":"2","parameterNumber":2,"parameterNumberName":"U-component_of_CURRENTS"},"data":[0,0,0,0,0,0,0,0,0,0,0,0,0,0,0,0,0,0,0,0,0,0,0,0,0,0,0,0,0,0,0,0,0,0,0,0,0,0,0,0,0,0,0,0,0,0,0,0,0,0,0,0,0,0,0,0,0,0,0.2606,0.2607,0,0.2595,0.2594,0.2593,0.2542,0.2542,0.2541,0.2541,0.2619,0.2621,0.2624,0,0,0,0,0,0,0,0,0,0,0,0,0,0.2693,0.2691,0.2606,0.2607,0.2607,0.2595,0.2594,0.2593,0.2543,0.2542,0.2541,0.254,0.2618,0.2621,0.2624,0,0,0,0,0,0,0,0,0,0,0,0,0,0.2659,0.269,0.2606,0.2585,0.2584,0.2595,0.2594,0.2593,0.2543,0.2542,0.2541,0.254,0.2617,0.2621,0.2624,0.2666,0,0,0.2636,0.2638,0,0,0,0,0,0,0,0,0.2661,0.2655,0.2588,0.2587,0.2585,0.2575,0.2654,0.2624,0.2543,0.2551,0.2541,0.254,0.2618,0.2621,0.261,0.267,0.2673,0.2637,0.2639,0.2641,0.2642,0,0,0,0,0,0,0,0.2663,0.2656,0.2595,0.2589,0.2587,0.2615,0.2607,0.2647,0.2586,0.255,0.2548,0.2558,0.2616,0.2606,0.2612,0.2674,0.2637,0.264,0.2642,0.2644,0.28,0.2801,0,0,0,0,0,0,0.2673,0.2658,0.2595,0.2595,0.263,0.2614,0.2605,0.2574,0.2583,0.2585,0.2559,0.2556,0.26,0.2607,0.2615,0.2719,0.2641,0.2644,0.2647,0.2798,0.28,0.2802,0,0,0,0,0,0,0.2674,0.2666,0.2596,0.2635,0.2628,0.2613,0.2579,0.2574,0.2581,0.259,0.2592,0.2573,0.26,0.2609,0.2648,0.272,0.2646,0.265,0.2796,0.2798,0.2801,0.2895,0,0,0,0,0,0,0.2676,0.2665,0.2652,0.2633,0.2627,0.2615,0.258,0.2575,0.259,0.2586,0.2603,0.2608,0.26,0.2642,0.2652,0.2724,0.2653,0.2793,0.2797,0.28,0.2889,0.29,0.291,0,0,0,0,0,0.2678,0.2686,0.265,0.2644,0.2605,0.2617,0.2616,0.2599,0.2593,0.26,0.2601,0.2608,0.2671,0.2646,0.2658,0.2733,0.2792,0.2796,0.28,0.2885,0.2898,0.2909,0,0,0,0,0,0,0.2781,0.2681,0.2642,0.2633,0.2624,0.2611,0.2647,0.2619,0.2624,0.2631,0.2624,0.263,0.2686,0.2695,0.2667,0.2784,0.2737,0.2744,0.2798,0.2811,0.2821,0.2858,0.2656,0,0,0,0,0,0.2779,0.2714,0.2676,0.2675,0.2686,0.2665,0.2673,0.2649,0.2652,0.2653,0.2668,0.2688,0.2711,0.2746,0.2758,0.2836,0.2863,0.2892,0.2902,0.2911,0.2947,0.3028,0.305,0.2815,0.2815,0.2815,0,0,0.2808,0.2764,0.2721,0.2685,0.2694,0.2715,0.2669,0.2695,0.2711,0.2668,0.2728,0.272,0.2731,0.2792,0.2825,0.2816,0.2989,0.2916,0.2923,0.2956,0.3035,0.3058,0.3079,0.2818,0.2817,0.2817,0,0,0.2873,0.2821,0.2795,0.2789,0.2788,0.2777,0.279,0.2784,0.2788,0.2816,0.2792,0.2825,0.2872,0.2893,0.2909,0.2993,0.3022,0.3007,0.312,0.3198,0.3219,0.3237,0.3294,0.3317,0.3036,0.3036,0.3036,0,0.2894,0.2889,0.281,0.2829,0.285,0.2815,0.2853,0.2855,0.2854,0.2891,0.2851,0.2928,0.2924,0.3019,0.3035,0.3023,0.3065,0.3071,0.3214,0.3233,0.3251,0.3304,0.3328,0.3041,0.304,0.304,0.3039,0,0.2967,0.2961,0.2992,0.2959,0.2963,0.3011,0.2993,0.3014,0.3017,0.3026,0.3105,0.3085,0.3143,0.3144,0.3115,0.325,0.3238,0.3199,0.3187,0.328,0.333,0.3353,0.3048,0.3046,0.3045,0.3043,0,0,0.297,0.3013,0.3017,0.3034,0.3041,0.3049,0.3104,0.3153,0.3219,0.3222,0.3328,0.334,0.3347,0.3365,0.3345,0.341,0.3541,0.3376,0.3377,0.3441,0.3723,0.3581,0.3593,0.3539,0.3544,0.3548,0.3705,0,0.3049,0.311,0.3112,0.3179,0.3211,0.3204,0.3259,0.3282,0.3322,0.3417,0.3434,0.3515,0.3431,0.347,0.3525,0.3529,0.3611,0.3503,0.3617,0.3621,0.3491,0.3618,0.3327,0.3431,0.3728,0.3732,0.3734,0,0.3084,0.3132,0.3208,0.3272,0.3295,0.3333,0.3416,0.3471,0.358,0.361,0.3698,0.3716,0.3814,0.372,0.3824,0.3765,0.3775,0.3768,0.3773,0.3633,0.3524,0.3388,0.3463,0.3773,0.377,0.3767,0.3765,0,0.306,0.3175,0.3245,0.3265,0.3341,0.3393,0.3464,0.3545,0.3623,0.3771,0.384,0.3939,0.3995,0.4034,0.4,0.3945,0.4108,0.4022,0.3914,0.3903,0.3673,0.3633,0.4141,0.4141,0.4141,0.414,0.414,0,0.3065,0.312,0.3257,0.3272,0.3404,0.3436,0.3564,0.3644,0.3782,0.3863,0.3969,0.4003,0.4081,0.4151,0.4114,0.4088,0.4206,0.3977,0.3954,0.3692,0.3654,0.3955,0.3931,0.4146,0.4145,0.4144,0.4143,0,0.2956,0.3053,0.3138,0.3289,0.3368,0.3445,0.3628,0.3692,0.3848,0.3959,0.4017,0.4127,0.4171,0.4243,0.43,0.4214,0.4212,0.418,0.3857,0.3791,0.3929,0.3908,0.4086,0.4083,0.408,0.4078,0.4076,0,0.2899,0.2934,0.3132,0.3201,0.3281,0.343,0.3505,0.3695,0.3748,0.3945,0.3967,0.4121,0.409,0.4181,0.411,0.4111,0.4181,0.3829,0.3652,0.3974,0.3934,0.3918,0.3901,0.3392,0.3384,0.3378,0.3374,0,0.2822,0.2896,0.2992,0.3112,0.322,0.3321,0.3459,0.3523,0.368,0.3745,0.3767,0.3802,0.3906,0.3735,0.3813,0.3747,0.3801,0.37,0.4183,0.3425,0.3325,0.3282,0.3289,0.332,0.3325,0.3329,0.3332,0.3334,0.2793,0.2841,0.295,0.3043,0.3139,0.3154,0.3162,0.3238,0.3285,0.3322,0.3449,0.3391,0.3465,0.3367,0.3282,0.3258,0.3478,0.3323,0.334,0.3364,0.3231,0.3127,0.3062,0.3065,0.3068,0.3071,0.3074,0,0.2763,0.2802,0.2866,0.2929,0.2883,0.3005,0.3059,0.2973,0.2882,0.2981,0.2958,0.2742,0.2688,0.2802,0.2667,0.2669,0.264,0.2574,0.2509,0.2566,0.2616,0.2441,0.2065,0.2061,0.2058,0.2055,0,0,0.275,0.2787,0.2787,0.2667,0.267,0.2574,0.2553,0.2448,0.246,0.2346,0.2321,0.2526,0.2685,0.2308,0.2293,0.2151,0.2333,0.2078,0.2895,0.2874,0.2918,0.3067,0.2865,0,0,0,0,0]},{"header":{"parameterUnit":"m.s-1","parameterCategory":2,"la1":30.2991,"la2":30.254,"lo1":-89.0895,"lo2":-89.0444,"dy":0.0017,"dx":0.0017,"nx":28,"ny":28,"refTime":"2025-03-12T03:00:00:Z","depth":"2","parameterNumber":3,"parameterNumberName":"V-component_of_CURRENTS"},"data":[0,0,0,0,0,0,0,0,0,0,0,0,0,0,0,0,0,0,0,0,0,0,0,0,0,0,0,0,0,0,0,0,0,0,0,0,0,0,0,0,0,0,0,0,0,0,0,0,0,0,0,0,0,0,0,0,0,0,0.0059,0.0059,0,0.0028,0.0028,0.0027,0.001,0.001,0.001,0.001,-0.0084,-0.0087,-0.0089,0,0,0,0,0,0,0,0,0,0,0,0,0,-0.0004,-0.0003,0.0059,0.0059,0.0058,0.0029,0.0028,0.0027,0.001,0.001,0.001,0.0011,-0.0083,-0.0086,-0.0089,0,0,0,0,0,0,0,0,0,0,0,0,0,-0.0002,-0.0002,0.0059,0.0048,0.0046,0.0029,0.0028,0.0027,0.001,0.001,0.001,0.0011,-0.0082,-0.0086,-0.009,-0.0118,0,0,-0.0102,-0.0104,0,0,0,0,0,0,0,0,-0.0002,0.0001,0.0049,0.0048,0.0047,0.0025,-0.0029,-0.0024,0.001,0.0022,0.001,0.0011,-0.0052,-0.0059,-0.0067,-0.0122,-0.0126,-0.0102,-0.0105,-0.0106,-0.0107,0,0,0,0,0,0,0,-0.0002,0.0001,0.0045,0.0049,0.0048,0.0008,0.0009,-0.0028,-0.0019,0.0021,0.002,0.002,-0.0054,-0.0063,-0.0069,-0.0127,-0.0102,-0.0106,-0.0108,-0.0109,-0.0179,-0.0179,0,0,0,0,0,0,0.0012,0.0002,0.0046,0.0044,0.0025,0.0009,0.0011,0.003,-0.0017,-0.0023,0.002,0.0019,-0.0056,-0.0065,-0.0073,-0.0083,-0.0106,-0.011,-0.0112,-0.018,-0.0179,-0.0179,0,0,0,0,0,0,0.0011,0.0017,0.0047,0.0022,0.0023,0.0011,0.0033,0.003,0.0023,-0.0017,-0.0024,0.0016,-0.0056,-0.0067,-0.0087,-0.0088,-0.0112,-0.0115,-0.018,-0.018,-0.0179,-0.0121,0,0,0,0,0,0,0.001,0.0017,0.0031,0.0024,0.0026,0.0044,0.0033,0.0029,0.0023,0.0022,-0.0022,-0.0031,-0.0057,-0.008,-0.0091,-0.0094,-0.0118,-0.0181,-0.018,-0.0179,-0.0124,-0.0119,-0.0114,0,0,0,0,0,0.0008,0.003,0.0032,0.0037,0.0048,0.0045,0.0042,0.003,0.0023,0.0024,0.0004,-0.0029,-0.0082,-0.0083,-0.0095,-0.01,-0.0182,-0.018,-0.0179,-0.0126,-0.012,-0.0114,0,0,0,0,0,0,-0.0012,0.003,0.0033,0.0061,0.0056,0.0043,0.0043,0.0032,0.0016,0.0015,-0.0023,-0.0033,-0.005,-0.0081,-0.0081,-0.0116,-0.0138,-0.0139,-0.0093,-0.0088,-0.0083,-0.0059,-0.0122,0,0,0,0,0,-0.0004,0.0037,0.0045,0.0062,0.0068,0.0055,0.005,0.0043,0.003,0.0023,-0.0006,-0.0035,-0.0056,-0.0075,-0.0099,-0.0124,-0.0145,-0.0134,-0.013,-0.0125,-0.0113,-0.013,-0.0126,-0.0175,-0.0175,-0.0175,0,0,-0.0006,0.0017,0.004,0.0062,0.006,0.0074,0.0052,0.0052,0.0057,0.0013,0.0008,-0.002,-0.0056,-0.0071,-0.0084,-0.0099,-0.0125,-0.0124,-0.012,-0.0109,-0.0129,-0.0124,-0.012,-0.0174,-0.0174,-0.0175,0,0,0.0006,0.0031,0.007,0.0077,0.0085,0.008,0.0084,0.0076,0.007,0.0059,0.0037,0.0018,-0.0029,-0.0044,-0.0061,-0.0047,-0.0094,-0.0066,-0.0031,-0.0048,-0.0044,-0.0041,-0.007,-0.007,-0.007,-0.0069,-0.0069,0,0.0,0.0048,0.007,0.0098,0.0107,0.009,0.0112,0.0104,0.0086,0.009,0.0065,0.0031,-0.0012,-0.0012,-0.0011,-0.0036,-0.0057,-0.005,-0.0041,-0.0038,-0.0036,-0.0067,-0.0067,-0.0067,-0.0067,-0.0067,-0.0067,0,0.0041,0.0072,0.0088,0.0134,0.0146,0.0154,0.016,0.0161,0.0145,0.0137,0.0133,0.0088,0.0071,0.0046,0.0015,0.0015,-0.001,-0.0028,-0.0053,-0.0027,-0.0062,-0.0063,-0.0062,-0.0063,-0.0064,-0.0065,0,0,0.0063,0.011,0.0117,0.0141,0.0166,0.0179,0.02,0.0216,0.0245,0.0206,0.0238,0.0179,0.0158,0.0139,0.0099,0.0073,0.0054,0.0028,0.0025,0.0003,0.0007,-0.0044,-0.0051,0.0037,0.0037,0.0038,-0.0027,0,0.0086,0.0133,0.0158,0.0201,0.0232,0.0238,0.0267,0.0281,0.0284,0.031,0.0267,0.0278,0.0193,0.0195,0.0152,0.0094,0.0055,0.0073,-0.0018,-0.0021,-0.0066,-0.0052,-0.0026,-0.0084,-0.0029,-0.0029,-0.0029,0,0.0141,0.016,0.02,0.0255,0.0271,0.029,0.035,0.0373,0.0407,0.0417,0.0414,0.0393,0.0358,0.029,0.0181,0.0196,0.0103,0.0044,0.004,-0.0025,-0.0074,-0.01,-0.0089,-0.0032,-0.0032,-0.0032,-0.0032,0,0.0168,0.0208,0.0234,0.0248,0.0297,0.032,0.0348,0.0399,0.0463,0.0495,0.0557,0.0492,0.0495,0.0372,0.0226,0.0208,0.0111,0.0072,-0.0064,-0.0069,-0.0072,-0.0078,-0.0006,-0.0005,-0.0005,-0.0005,-0.0005,0,0.0214,0.0243,0.024,0.0262,0.0317,0.0343,0.0428,0.046,0.0548,0.0663,0.0611,0.0683,0.0517,0.0446,0.0278,0.0103,0.0141,-0.0052,-0.0084,-0.0054,-0.0057,-0.0031,-0.0033,-0.0008,-0.0007,-0.0007,-0.0006,0,0.0272,0.0263,0.0302,0.0323,0.034,0.0383,0.0499,0.0589,0.0644,0.0801,0.083,0.0832,0.0731,0.055,0.0363,0.0189,0.0019,-0.0057,-0.002,-0.0048,-0.0167,-0.0165,-0.0212,-0.0214,-0.0216,-0.0218,-0.0219,0,0.0314,0.0329,0.0347,0.0399,0.0413,0.048,0.057,0.0634,0.0768,0.0904,0.1014,0.0958,0.0943,0.063,0.0326,0.0028,0.0003,-0.0145,-0.0185,-0.0158,-0.0186,-0.0181,-0.0177,-0.017,-0.0171,-0.0171,-0.0172,0,0.0385,0.0371,0.0396,0.0511,0.0586,0.0692,0.0821,0.093,0.1056,0.1154,0.1277,0.1253,0.0974,0.0671,0.0263,0.0066,-0.0101,-0.017,-0.0128,-0.0127,-0.0126,-0.0151,-0.0146,-0.0178,-0.0177,-0.0177,-0.0176,-0.0176,0.0435,0.0475,0.0528,0.0647,0.0752,0.0929,0.1027,0.1169,0.133,0.1483,0.1448,0.1392,0.1067,0.0527,0.0188,-0.0163,-0.0154,-0.0278,-0.0273,-0.0267,-0.0256,-0.0259,-0.0334,-0.0334,-0.0335,-0.0335,-0.0335,0,0.0507,0.0577,0.0697,0.0833,0.0985,0.1019,0.1235,0.1322,0.1478,0.1566,0.1588,0.1286,0.094,0.0576,0.0039,-0.0288,-0.0291,-0.0372,-0.0303,-0.0296,-0.0289,-0.0277,-0.0362,-0.0363,-0.0364,-0.0365,0,0,0.0562,0.0675,0.0752,0.102,0.1131,0.1315,0.1427,0.1511,0.1593,0.1633,0.1586,0.1478,0.1042,0.0655,0.0225,-0.0072,-0.0106,-0.0124,-0.0069,0.007,0.008,-0.0206,-0.0176,0,0,0,0,0]}],[{"header":{"parameterUnit":"m.s-1","parameterCategory":2,"la1":30.2991,"la2":30.254,"lo1":-89.0895,"lo2":-89.0444,"dy":0.0017,"dx":0.0017,"nx":28,"ny":28,"refTime":"2025-03-12T03:00:00:Z","depth":"4","parameterNumber":2,"parameterNumberName":"U-component_of_CURRENTS"},"data":[0,0,0,0,0,0,0,0,0,0,0,0,0,0,0,0,0,0,0,0,0,0,0,0,0,0,0,0,0,0,0,0,0,0,0,0,0,0,0,0,0,0,0,0,0,0,0,0,0,0,0,0,0,0,0,0,0,0,0.1352,0.1354,0,0.1501,0.1502,0.1504,0.1616,0.1618,0.1619,0.162,0.1644,0.1643,0.1643,0,0,0,0,0,0,0,0,0,0,0,0,0,0.103,0.1036,0.1352,0.1354,0.1356,0.15,0.1502,0.1504,0.1616,0.1618,0.1619,0.1621,0.1644,0.1643,0.1643,0,0,0,0,0,0,0,0,0,0,0,0,0,0.1172,0.1038,0.1352,0.1431,0.144,0.15,0.1502,0.1505,0.1616,0.1618,0.162,0.1621,0.1644,0.1643,0.1643,0.16,0,0,0.164,0.164,0,0,0,0,0,0,0,0,0.1164,0.1183,0.1417,0.1426,0.1436,0.1544,0.1398,0.1531,0.1615,0.1547,0.162,0.1622,0.1599,0.1602,0.1624,0.1602,0.1603,0.164,0.164,0.1639,0.1639,0,0,0,0,0,0,0,0.1154,0.1177,0.1409,0.1419,0.1431,0.1413,0.1436,0.1423,0.1556,0.1553,0.1562,0.1581,0.1603,0.1625,0.1625,0.1603,0.164,0.1639,0.1639,0.1639,0.1665,0.1666,0,0,0,0,0,0,0.1146,0.1169,0.1404,0.1413,0.1304,0.1418,0.1444,0.1505,0.156,0.1571,0.158,0.1586,0.1625,0.1626,0.1626,0.1699,0.1639,0.1639,0.1638,0.1664,0.1665,0.1666,0,0,0,0,0,0,0.114,0.1168,0.1398,0.1292,0.1321,0.1423,0.149,0.1507,0.1564,0.1582,0.1591,0.1623,0.1627,0.1627,0.1661,0.1696,0.1638,0.1637,0.1662,0.1664,0.1666,0.1767,0,0,0,0,0,0,0.113,0.1165,0.1221,0.1294,0.1327,0.1451,0.1489,0.1509,0.1572,0.1583,0.162,0.1623,0.1628,0.1662,0.166,0.1694,0.1637,0.1661,0.1663,0.1665,0.1763,0.1772,0.1781,0,0,0,0,0,0.1119,0.1182,0.1223,0.1252,0.1398,0.1452,0.1467,0.1541,0.1572,0.1598,0.1639,0.1624,0.1674,0.1663,0.166,0.1695,0.166,0.1663,0.1665,0.1758,0.177,0.1781,0,0,0,0,0,0,0.1052,0.1202,0.1248,0.1352,0.1405,0.1472,0.151,0.1551,0.1605,0.1621,0.1638,0.1643,0.1691,0.1667,0.1654,0.1707,0.1663,0.1666,0.1735,0.1746,0.1755,0.1758,0.1636,0,0,0,0,0,0.1067,0.1178,0.1264,0.1346,0.1373,0.1442,0.148,0.1526,0.1576,0.1606,0.1636,0.1662,0.1692,0.1701,0.1716,0.1731,0.1735,0.175,0.1759,0.1767,0.1767,0.1845,0.1862,0.1675,0.1675,0.1675,0,0,0.1051,0.116,0.1212,0.1342,0.139,0.1432,0.147,0.153,0.157,0.1591,0.1658,0.1696,0.1705,0.175,0.1765,0.1738,0.1817,0.177,0.1778,0.1772,0.185,0.1868,0.1885,0.1677,0.1677,0.1676,0,0,0.1053,0.1176,0.1246,0.1309,0.1404,0.1442,0.1462,0.1541,0.1585,0.1642,0.1684,0.1741,0.177,0.1802,0.1814,0.1866,0.1871,0.1879,0.1921,0.1999,0.2015,0.203,0.2042,0.2057,0.1875,0.1876,0.1876,0,0.103,0.1124,0.1258,0.133,0.1373,0.1446,0.1474,0.1528,0.1613,0.1654,0.167,0.1792,0.1789,0.1869,0.19,0.1887,0.1927,0.1885,0.2014,0.2029,0.2042,0.2051,0.2067,0.1881,0.188,0.188,0.1879,0,0.1054,0.1135,0.1168,0.13,0.1383,0.1399,0.15,0.1566,0.1624,0.1684,0.1792,0.1835,0.1918,0.1925,0.1928,0.2032,0.2027,0.2029,0.1993,0.2068,0.2071,0.2085,0.1888,0.1886,0.1885,0.1883,0,0,0.0959,0.1138,0.1148,0.1206,0.1352,0.1416,0.1504,0.1586,0.1653,0.1756,0.1852,0.1925,0.2002,0.2021,0.2059,0.2109,0.2219,0.2121,0.2123,0.2143,0.2379,0.2205,0.2203,0.2283,0.2287,0.229,0.2338,0,0.0896,0.0997,0.1116,0.1193,0.124,0.1376,0.1456,0.1587,0.168,0.1797,0.1895,0.2001,0.2025,0.2097,0.2167,0.2217,0.2267,0.2204,0.2293,0.2293,0.214,0.2217,0.2301,0.2348,0.2351,0.2354,0.2355,0,0.0867,0.0939,0.1003,0.1163,0.1194,0.1265,0.1441,0.1526,0.1717,0.1816,0.1983,0.208,0.2215,0.2213,0.2363,0.2346,0.2375,0.2389,0.2392,0.2202,0.2146,0.226,0.2381,0.2379,0.2377,0.2375,0.2374,0,0.0757,0.0868,0.0914,0.0969,0.1156,0.1224,0.1318,0.1526,0.1664,0.1857,0.1985,0.2158,0.2272,0.2372,0.2444,0.2436,0.2573,0.2552,0.2412,0.2398,0.2496,0.248,0.2645,0.2645,0.2645,0.2645,0.2645,0,0.0671,0.0707,0.0864,0.0897,0.0955,0.1164,0.1288,0.1404,0.1678,0.1839,0.2005,0.215,0.2331,0.2445,0.2486,0.2496,0.2623,0.2424,0.2413,0.2531,0.2519,0.2505,0.2488,0.2647,0.2646,0.2646,0.2646,0,0.0589,0.0666,0.073,0.0878,0.0918,0.0997,0.128,0.1399,0.1643,0.1871,0.1965,0.2212,0.231,0.2433,0.2552,0.2517,0.2544,0.251,0.2606,0.2599,0.2297,0.2285,0.2344,0.2339,0.2334,0.233,0.2327,0,0.0556,0.058,0.0699,0.0756,0.0816,0.0968,0.107,0.1343,0.1509,0.188,0.1964,0.2164,0.228,0.2323,0.2421,0.2466,0.2446,0.2442,0.238,0.229,0.2274,0.2269,0.2263,0.232,0.2319,0.2317,0.2316,0,0.0475,0.0525,0.0588,0.0695,0.0782,0.0917,0.1086,0.1205,0.1535,0.1745,0.1971,0.2082,0.2155,0.2226,0.2274,0.2305,0.2439,0.2393,0.2401,0.2343,0.2261,0.2249,0.2248,0.23,0.2302,0.2304,0.2305,0,0.0423,0.0431,0.0538,0.0652,0.078,0.0898,0.0961,0.1176,0.1378,0.1766,0.1804,0.1988,0.2146,0.214,0.2191,0.22,0.2157,0.2111,0.2133,0.2152,0.2063,0.1929,0.1865,0,0,0,0,0,0.0371,0.04,0.0504,0.063,0.0796,0.0877,0.1031,0.1127,0.135,0.1473,0.1695,0.1769,0.1885,0.1956,0.192,0.2032,0.2119,0.1977,0.2065,0.2211,0.223,0.214,0,0,0,0,0,0,0.033,0.0392,0.047,0.0669,0.0778,0.0925,0.1012,0.1125,0.122,0.1443,0.1491,0.1683,0.1769,0.1913,0.1905,0.1921,0.1943,0.209,0.2086,0.2201,0.2218,0.2233,0.2147,0,0,0,0,0]},{"header":{"parameterUnit":"m.s-1","parameterCategory":2,"la1":30.2991,"la2":30.254,"lo1":-89.0895,"lo2":-89.0444,"dy":0.0017,"dx":0.0017,"nx":28,"ny":28,"refTime":"2025-03-12T03:00:00:Z","depth":"4","parameterNumber":3,"parameterNumberName":"V-component_of_CURRENTS"},"data":[0,0,0,0,0,0,0,0,0,0,0,0,0,0,0,0,0,0,0,0,0,0,0,0,0,0,0,0,0,0,0,0,0,0,0,0,0,0,0,0,0,0,0,0,0,0,0,0,0,0,0,0,0,0,0,0,0,0,0.0081,0.0081,0,0.0062,0.0062,0.0062,0.0052,0.0053,0.0053,0.0053,0.0015,0.0014,0.0013,0,0,0,0,0,0,0,0,0,0,0,0,0,0.0125,0.0124,0.0081,0.0081,0.0081,0.0062,0.0062,0.0062,0.0052,0.0053,0.0053,0.0053,0.0016,0.0014,0.0013,0,0,0,0,0,0,0,0,0,0,0,0,0,0.0105,0.0124,0.0081,0.0075,0.0074,0.0062,0.0062,0.0062,0.0052,0.0053,0.0053,0.0053,0.0016,0.0015,0.0013,0.0001,0,0,0.0008,0.0007,0,0,0,0,0,0,0,0,0.0106,0.0104,0.0076,0.0075,0.0074,0.0061,0.0064,0.0041,0.0052,0.006,0.0053,0.0053,0.0029,0.0027,0.0022,-0.0001,-0.0003,0.0008,0.0007,0.0006,0.0006,0,0,0,0,0,0,0,0.0108,0.0104,0.0073,0.0076,0.0075,0.0078,0.0075,0.006,0.0043,0.0059,0.0059,0.0058,0.0029,0.0023,0.0021,-0.0003,0.0008,0.0007,0.0006,0.0005,-0.0019,-0.0019,0,0,0,0,0,0,0.0111,0.0105,0.0073,0.0072,0.0092,0.0077,0.0074,0.0064,0.0044,0.0041,0.0058,0.0057,0.0026,0.0023,0.0019,0.0014,0.0006,0.0005,0.0004,-0.002,-0.0019,-0.0019,0,0,0,0,0,0,0.0111,0.0108,0.0074,0.009,0.0086,0.0076,0.0066,0.0064,0.0059,0.0043,0.004,0.0055,0.0026,0.0022,0.0016,0.0012,0.0004,0.0003,-0.002,-0.002,-0.0019,-0.0004,0,0,0,0,0,0,0.0113,0.0108,0.0099,0.009,0.0085,0.007,0.0065,0.0063,0.0059,0.0058,0.0039,0.0036,0.0026,0.0018,0.0014,0.001,0.0001,-0.0021,-0.002,-0.0019,-0.0005,-0.0003,-0.0002,0,0,0,0,0,0.0114,0.0108,0.0099,0.0095,0.0074,0.007,0.0068,0.0061,0.0059,0.0057,0.0051,0.0037,0.0019,0.0017,0.0012,0.0007,-0.0021,-0.002,-0.0019,-0.0006,-0.0004,-0.0002,0,0,0,0,0,0,0.0145,0.0106,0.0096,0.0084,0.0077,0.0068,0.0067,0.0061,0.0055,0.0054,0.004,0.0037,0.0031,0.0019,0.0017,0.0003,-0.0004,-0.0004,0.0008,0.001,0.0012,0.0013,0.0,0,0,0,0,0,0.0142,0.0108,0.0096,0.0085,0.0084,0.0074,0.0071,0.0066,0.006,0.0057,0.0046,0.0036,0.0029,0.0021,0.0013,0.0001,-0.0025,-0.0004,-0.0002,-0.0001,-0.0003,-0.0041,-0.0044,-0.0017,-0.0017,-0.0017,0,0,0.016,0.0125,0.0116,0.0086,0.0081,0.0085,0.0072,0.0069,0.0071,0.0053,0.0054,0.0042,0.0029,0.0023,0.0018,0.0011,-0.0023,-0.0,0.0001,-0.0002,-0.0041,-0.0044,-0.0047,-0.0016,-0.0016,-0.0016,0,0,0.0181,0.0143,0.0133,0.0117,0.0097,0.0089,0.0089,0.0081,0.0077,0.0073,0.0065,0.0052,0.0039,0.0028,0.0021,0.0026,-0.0009,0.0024,0.0026,-0.0012,-0.0015,-0.0017,-0.0059,-0.0066,0.002,0.002,0.002,0,0.0217,0.0191,0.0137,0.0126,0.013,0.0095,0.0118,0.0097,0.0087,0.0085,0.0077,0.0057,0.0041,0.0033,0.0033,0.0028,-0.0,0.0018,-0.0011,-0.0014,-0.0017,-0.006,-0.0067,0.0021,0.0021,0.0021,0.0021,0,0.023,0.0217,0.0214,0.0181,0.0172,0.0182,0.0154,0.0142,0.0129,0.011,0.0098,0.0073,0.0064,0.0051,0.0041,0.0015,0.0001,-0.0002,-0.0018,-0.002,-0.0064,-0.0072,0.0022,0.0022,0.0021,0.0021,0,0,0.032,0.0247,0.0253,0.0259,0.0209,0.022,0.0197,0.019,0.0192,0.0147,0.0152,0.0114,0.0089,0.0081,0.006,0.0017,-0.0036,-0.0004,-0.0006,-0.005,-0.0127,-0.0124,-0.0133,-0.0046,-0.0047,-0.0048,-0.015,0,0.0374,0.0376,0.032,0.0352,0.0365,0.0312,0.031,0.0277,0.0239,0.022,0.0158,0.0155,0.0103,0.0109,0.005,-0.0006,-0.0056,-0.0008,-0.0115,-0.0118,-0.012,-0.0142,-0.0052,-0.0157,-0.0159,-0.016,-0.0161,0,0.0417,0.0413,0.0456,0.0448,0.0457,0.047,0.0465,0.0453,0.0376,0.0349,0.0285,0.0228,0.0155,0.0124,-0.0014,0.0018,-0.0054,-0.011,-0.0115,-0.0124,-0.0131,-0.0154,-0.0177,-0.0175,-0.0174,-0.0173,-0.0172,0,0.0505,0.0515,0.0561,0.0556,0.0538,0.0564,0.0563,0.0503,0.0519,0.0428,0.0416,0.0297,0.026,0.0137,-0.0014,-0.001,-0.0169,-0.0171,-0.0242,-0.0243,-0.0221,-0.0217,-0.0264,-0.0264,-0.0264,-0.0263,-0.0263,0,0.0563,0.0598,0.0619,0.0637,0.0699,0.0671,0.0733,0.0672,0.0665,0.0656,0.0504,0.0461,0.0261,0.013,-0.0003,-0.016,-0.0166,-0.0251,-0.0271,-0.0212,-0.0206,-0.0228,-0.0223,-0.0267,-0.0266,-0.0266,-0.0265,0,0.0605,0.0619,0.0673,0.0715,0.0726,0.0774,0.0838,0.0874,0.0841,0.0819,0.0799,0.0602,0.0399,0.0196,-0.0017,-0.0125,-0.0277,-0.0324,-0.0259,-0.0271,-0.033,-0.0323,-0.0414,-0.0415,-0.0416,-0.0416,-0.0417,0,0.0603,0.0643,0.0723,0.0775,0.0795,0.088,0.092,0.0937,0.0955,0.0886,0.0854,0.0678,0.051,0.0205,-0.0012,-0.0275,-0.0302,-0.0377,-0.0355,-0.0337,-0.0347,-0.0338,-0.033,-0.0418,-0.0418,-0.0418,-0.0418,0,0.0608,0.0663,0.0721,0.0818,0.089,0.0968,0.1021,0.1052,0.1042,0.1042,0.09,0.0715,0.0477,0.02,-0.0006,-0.0191,-0.0331,-0.0385,-0.0384,-0.0364,-0.0342,-0.035,-0.0341,-0.0421,-0.042,-0.042,-0.042,0,0.0623,0.0671,0.0769,0.085,0.0943,0.0991,0.1034,0.1051,0.1077,0.0992,0.0942,0.0688,0.0548,0.0243,0.005,-0.0137,-0.0176,-0.0217,-0.0226,-0.0226,-0.0144,-0.0087,-0.0111,0,0,0,0,0,0.0621,0.0681,0.0779,0.0861,0.0963,0.1,0.1059,0.1101,0.1083,0.0998,0.099,0.0764,0.0452,0.0295,0.011,0.0026,-0.0219,-0.0196,-0.0273,-0.0434,-0.0431,-0.0366,0,0,0,0,0,0,0.0623,0.0719,0.077,0.0856,0.0915,0.0999,0.1034,0.1032,0.0986,0.0952,0.0779,0.0732,0.0414,0.0558,0.0107,0.0049,-0.0021,-0.0334,-0.0338,-0.0435,-0.0433,-0.0431,-0.0363,0,0,0,0,0]}]]